Location: Unspecified
(0.0000°N, 0.0000°E)
Time: 21:23:57
(UTC+00:00)

ARIANE 2 DEB - Visible Passes

Search period start: 06 March 2026 00:00
Search period end: 16 March 2026 00:00
Orbit: 675 x 35718 km, 8.2° (Epoch: 6 March)

Date Brightness Start Highest point End Pass type
(mag) Time Alt. Az. Time Alt. Az. Time Alt. Az.
6 Mar ? 15:51:25 10° E 19:31:36 31° E 20:16:19 28° E visible
7 Mar ? 20:00:49 10° W 21:43:18 44° W 05:50:54 10° E visible
8 Mar ? 16:57:01 10° WNW 19:45:30 87° NNW 03:00:55 10° ESE visible
9 Mar ? 14:04:37 10° WNW 22:11:49 78° ESE 00:06:47 10° ESE visible
10 Mar ? 15:39:57 10° E 19:22:23 31° E 20:09:39 28° E visible
11 Mar ? 19:51:55 10° W 21:34:04 43° W 05:41:52 10° E visible
12 Mar ? 16:48:00 10° WNW 19:32:16 87° NNW 02:51:54 10° ESE visible
13 Mar ? 13:55:36 10° WNW 22:02:02 78° ESE 23:57:48 10° E visible
14 Mar ? 15:28:26 10° E 19:13:11 31° E 20:03:33 27° E visible
